IST,Max TemperatureF,Mean TemperatureF,Min TemperatureF,Max Dew PointF,MeanDew PointF,Min DewpointF,Max Humidity, Mean Humidity, Min Humidity, Max Sea Level PressureIn, Mean Sea Level PressureIn, Min Sea Level PressureIn, Max VisibilityMiles, Mean VisibilityMiles, Min VisibilityMiles, Max Wind SpeedMPH, Mean Wind SpeedMPH, Max Gust SpeedMPH,PrecipitationIn, CloudCover, Events, WindDirDegrees
2011-10-1,91,82,73,66,58,55,61,47,29,29.89,29.82,29.77,4,3,2,17,7,20,0.00,,,304
2011-10-2,89,81,73,66,63,59,73,55,36,29.86,29.80,29.74,4,3,2,10,7,,0.00,1,,296
2011-10-3,91,81,71,66,60,54,83,54,29,29.86,29.80,29.74,4,3,2,10,5,,0.00,,,295
2011-10-4,91,81,71,66,60,55,73,50,29,29.89,29.83,29.77,4,3,2,8,4,,0.00,,,297
2011-10-5,93,84,75,63,60,55,61,46,29,29.98,29.91,29.83,4,3,2,8,4,,0.00,1,,323
2011-10-6,93,85,77,61,59,57,57,43,30,30.04,29.94,29.89,4,3,2,8,4,,0.00,,,294
2011-10-7,95,83,71,64,57,52,69,42,23,29.98,29.92,29.86,4,3,2,8,1,,0.00,,,290
2011-10-8,93,83,73,64,59,54,61,43,30,29.98,29.92,29.86,3,3,2,8,3,,0.00,2,,315
2011-10-9,95,86,77,66,61,54,69,47,25,30.01,29.94,29.89,3,2,2,8,2,,0.00,3,,80
2011-10-10,95,83,71,64,57,48,69,42,20,30.04,29.96,29.86,3,3,2,6,1,,0.00,2,,310
2011-10-11,95,84,73,64,55,46,69,40,21,30.04,29.98,29.92,3,2,2,7,2,,0.00,1,,180
2011-10-12,93,82,71,63,55,46,69,42,20,30.04,29.96,29.89,2,2,2,9,3,,0.00,1,,348
2011-10-13,93,81,69,61,54,46,61,40,21,29.98,29.90,29.86,2,2,2,6,1,,0.00,3,,244
2011-10-14,93,82,71,59,55,50,57,40,24,29.95,29.87,29.83,3,2,2,9,2,,0.00,3,,297
2011-10-15,93,80,68,59,46,37,60,31,15,29.89,29.85,29.80,4,2,2,12,3,,0.00,1,,296
2011-10-16,93,83,73,54,48,43,42,30,20,29.92,29.86,29.80,2,2,2,9,3,,0.00,2,,57
2011-10-17,93,82,71,50,47,45,43,28,19,29.95,29.89,29.83,2,2,2,10,4,,0.00,1,,71
2011-10-18,91,81,71,48,44,37,41,28,15,30.01,29.92,29.86,2,2,1,9,5,,0.00,1,,59
2011-10-19,91,78,64,55,45,37,59,35,16,29.92,29.84,29.77,2,2,2,12,2,,0.00,,,200
2011-10-20,89,78,66,55,47,45,53,35,21,29.89,29.82,29.77,2,2,1,6,1,,0.00,3,,-1
2011-10-21,91,80,69,57,46,37,57,33,17,29.95,29.87,29.83,2,2,2,8,1,,0.00,2,,50
2011-10-22,89,78,66,61,50,46,69,40,22,29.98,29.92,29.89,2,2,1,8,3,,0.00,,,216
2011-10-23,93,80,68,57,50,45,60,37,19,30.01,29.95,29.89,2,2,1,7,1,,0.00,,,281
2011-10-24,93,80,68,59,48,41,60,34,17,30.01,29.96,29.89,3,2,1,10,3,,0.00,2,,300
2011-10-25,91,80,69,59,50,43,60,38,18,29.98,29.94,29.89,2,2,1,10,1,22,0.00,2,,60
2011-10-26,87,78,69,54,50,41,56,35,25,30.04,29.99,29.95,2,2,1,8,5,,0.00,1,,18
2011-10-27,86,74,62,50,41,34,55,33,17,30.06,29.99,29.95,2,2,1,8,1,,0.00,,,-1
2011-10-28,86,73,60,46,42,34,59,41,15,30.01,29.97,29.92,4,2,1,5,0,,0.00,,,40
2011-10-29,68,65,62,43,43,41,48,45,40,30.01,29.99,29.98,2,2,2,0,0,,0.00,,,-1
2011-10-30,86,74,62,54,47,43,64,43,23,29.98,29.91,29.86,2,2,0,4,0,,0.00,,,-1
2011-10-31,86,74,62,50,44,37,52,37,18,29.98,29.93,29.89,2,2,1,6,1,,0.00,1,,197